,,Stat5,,Stat1,,Stat2,,Stat3,,Stat4,,Wind1,,Wind1,
time,status,PA1M_AVG,status,PR1M_SUM,status,RH1M_AVG,status,SR1M_AVG,status,TA1M_AVG,status,W1dAve1m,status,W1sAve1m,
2002-11-18, 00:00:00,VALID,918.068,VALID,0,VALID,99.5399,VALID,0,VALID,19.5066,VALID,12,VALID,0.599265,
2002-11-18, 00:01:00,VALID,918.068,VALID,0,VALID,99.5399,VALID,0,VALID,19.5129,VALID,12,VALID,0.55701,
2002-11-18, 00:02:00,VALID,918.069,VALID,0,VALID,99.5476,VALID,0,VALID,19.5196,VALID,4,VALID,0.656059,
2002-11-18, 00:03:00,VALID,918.052,VALID,0,VALID,99.5488,VALID,-0.0169808,VALID,19.523,VALID,359,VALID,0.60957,
2002-11-18, 00:04:00,VALID,918.026,VALID,0,VALID,99.545,VALID,0,VALID,19.5163,VALID,360,VALID,0.635557,
2002-11-18, 00:05:00,VALID,918.015,VALID,0,VALID,99.5501,VALID,0,VALID,19.5163,VALID,1,VALID,0.722762,
2002-11-18, 00:06:00,VALID,917.996,VALID,0,VALID,99.5488,VALID,-0.0339617,VALID,19.5392,VALID,11,VALID,0.638393,
2002-11-18, 00:07:00,VALID,917.976,VALID,0,VALID,99.5539,VALID,0,VALID,19.5283,VALID,14,VALID,0.587271,
2002-11-18, 00:08:00,VALID,917.956,VALID,0,VALID,99.5514,VALID,0,VALID,19.5551,VALID,358,VALID,0.749199,
2002-11-18, 00:09:00,VALID,917.955,VALID,0,VALID,99.5539,VALID,-0.0339617,VALID,19.5583,VALID,11,VALID,0.814189,
2002-11-18, 00:10:00,VALID,917.933,VALID,0,VALID,99.5412,VALID,-0.0509425,VALID,19.5678,VALID,2,VALID,0.665752,
2002-11-18, 00:11:00,VALID,917.928,VALID,0,VALID,99.5437,VALID,-0.0169808,VALID,19.5805,VALID,21,VALID,0.673828,
2002-11-18, 00:12:00,VALID,917.914,VALID,0,VALID,99.5336,VALID,-0.0169808,VALID,19.5777,VALID,19,VALID,0.802902,
2002-11-18, 00:13:00,VALID,917.916,VALID,0,VALID,99.531,VALID,0,VALID,19.5904,VALID,22,VALID,0.505134,
2002-11-18, 00:14:00,VALID,917.909,VALID,0,VALID,99.5412,VALID,0,VALID,19.5869,VALID,22,VALID,0.505008,
2002-11-18, 00:15:00,VALID,917.892,VALID,0,VALID,99.5209,VALID,-0.0169808,VALID,19.5899,VALID,18,VALID,0.501379,
2002-11-18, 00:16:00,VALID,917.87,VALID,0,VALID,99.5094,VALID,0,VALID,19.5869,VALID,25,VALID,0.706696,
2002-11-18, 00:17:00,VALID,917.827,VALID,0,VALID,99.5094,VALID,0,VALID,19.577,VALID,20,VALID,0.695313,
2002-11-18, 00:18:00,VALID,917.8,VALID,0,VALID,99.4891,VALID,-0.0169808,VALID,19.5842,VALID,20,VALID,0.626562,
2002-11-18, 00:19:00,VALID,917.764,VALID,0,VALID,99.5043,VALID,0,VALID,19.5966,VALID,14,VALID,0.490119,
2002-11-18, 00:20:00,VALID,917.748,VALID,0,VALID,99.4967,VALID,0,VALID,19.6095,VALID,12,VALID,0.665707,
2002-11-18, 00:21:00,VALID,917.715,VALID,0,VALID,99.4853,VALID,0,VALID,19.6063,VALID,10,VALID,0.648884,
2002-11-18, 00:22:00,VALID,917.705,VALID,0,VALID,99.4751,VALID,0,VALID,19.6125,VALID,6,VALID,0.652902,
2002-11-18, 00:23:00,VALID,917.686,VALID,0,VALID,99.4751,VALID,0,VALID,19.6229,VALID,17,VALID,0.635817,
2002-11-18, 00:24:00,VALID,917.688,VALID,0,VALID,99.4662,VALID,-0.0169808,VALID,19.6264,VALID,20,VALID,0.672564,
2002-11-18, 00:25:00,VALID,917.688,VALID,0,VALID,99.4636,VALID,-0.0169808,VALID,19.6324,VALID,16,VALID,0.595089,
2002-11-18, 00:26:00,VALID,917.674,VALID,0,VALID,99.4509,VALID,0,VALID,19.6326,VALID,16,VALID,0.965625,
2002-11-18, 00:27:00,VALID,917.678,VALID,0,VALID,99.4471,VALID,-0.0339617,VALID,19.6095,VALID,8,VALID,0.783482,
2002-11-18, 00:28:00,VALID,917.661,VALID,0,VALID,99.4268,VALID,0,VALID,19.6324,VALID,9,VALID,0.715495,
2002-11-18, 00:29:00,VALID,917.657,VALID,0,VALID,99.4204,VALID,0,VALID,19.6259,VALID,8,VALID,0.731086,
2002-11-18, 00:30:00,VALID,917.652,VALID,0,VALID,99.4039,VALID,0,VALID,19.6157,VALID,14,VALID,0.564732,
2002-11-18, 00:31:00,VALID,917.643,VALID,0,VALID,99.4039,VALID,0,VALID,19.6132,VALID,25,VALID,0.460268,
2002-11-18, 00:32:00,VALID,917.638,VALID,0,VALID,99.3899,VALID,0,VALID,19.6095,VALID,24,VALID,0.557492,
2002-11-18, 00:33:00,VALID,917.618,VALID,0,VALID,99.3772,VALID,0,VALID,19.6001,VALID,28,VALID,0.46875,
2002-11-18, 00:34:00,VALID,917.623,VALID,0,VALID,99.3734,VALID,0,VALID,19.6098,VALID,26,VALID,0.669866,
2002-11-18, 00:35:00,VALID,917.618,VALID,0,VALID,99.3619,VALID,-0.0339617,VALID,19.5978,VALID,22,VALID,0.349414,
2002-11-18, 00:36:00,VALID,917.619,VALID,0,VALID,99.367,VALID,-0.0679233,VALID,19.608,VALID,22,VALID,0.120982,
2002-11-18, 00:37:00,VALID,917.617,VALID,0,VALID,99.3708,VALID,-0.0849042,VALID,19.6142,VALID,22,VALID,0.0119485,
2002-11-18, 00:38:00,VALID,917.622,VALID,0,VALID,99.367,VALID,-0.0849042,VALID,19.6306,VALID,22,VALID,0.0283717,
2002-11-18, 00:39:00,VALID,917.621,VALID,0,VALID,99.3695,VALID,-0.0509425,VALID,19.6304,VALID,22,VALID,0,
2002-11-18, 00:40:00,VALID,917.627,VALID,0,VALID,99.3594,VALID,-0.0509425,VALID,19.6398,VALID,22,VALID,0.168973,
2002-11-18, 00:41:00,VALID,917.631,VALID,0,VALID,99.3568,VALID,-0.0339617,VALID,19.6401,VALID,22,VALID,0.230769,
2002-11-18, 00:42:00,VALID,917.636,VALID,0,VALID,99.353,VALID,-0.0679233,VALID,19.653,VALID,22,VALID,0.329733,
2002-11-18, 00:43:00,VALID,917.627,VALID,0,VALID,99.3327,VALID,-0.0679233,VALID,19.6403,VALID,22,VALID,0.485268,
2002-11-18, 00:44:00,VALID,917.621,VALID,0,VALID,99.3314,VALID,-0.0509425,VALID,19.6264,VALID,22,VALID,0.347266,
2002-11-18, 00:45:00,VALID,917.618,VALID,0,VALID,99.3327,VALID,-0.0679233,VALID,19.6428,VALID,22,VALID,0.170312,
2002-11-18, 00:46:00,VALID,917.607,VALID,0,VALID,99.3288,VALID,-0.0169808,VALID,19.6465,VALID,22,VALID,0.0976563,
2002-11-18, 00:47:00,VALID,917.592,VALID,0,VALID,99.3301,VALID,-0.0679233,VALID,19.6329,VALID,22,VALID,0.104235,
2002-11-18, 00:48:00,VALID,917.583,VALID,0,VALID,99.3365,VALID,-0.0679233,VALID,19.6525,VALID,22,VALID,0,
2002-11-18, 00:49:00,VALID,917.574,VALID,0,VALID,99.3403,VALID,-0.0339617,VALID,19.662,VALID,22,VALID,0,
2002-11-18, 00:50:00,VALID,917.571,VALID,0,VALID,99.3187,VALID,-0.0849042,VALID,19.6756,VALID,22,VALID,0,
2002-11-18, 00:51:00,VALID,917.561,VALID,0,VALID,99.3238,VALID,-0.0679233,VALID,19.6629,VALID,22,VALID,0,
2002-11-18, 00:52:00,VALID,917.551,VALID,0,VALID,99.3161,VALID,-0.0679233,VALID,19.6692,VALID,22,VALID,0,
2002-11-18, 00:53:00,VALID,917.528,VALID,0,VALID,99.3136,VALID,-0.0679233,VALID,19.6624,VALID,22,VALID,0,
2002-11-18, 00:54:00,VALID,917.517,VALID,0,VALID,99.3149,VALID,-0.0849042,VALID,19.6652,VALID,13,VALID,0.233705,
2002-11-18, 00:55:00,VALID,917.507,VALID,0,VALID,99.3238,VALID,-0.0679233,VALID,19.6915,VALID,12,VALID,0.285616,
2002-11-18, 00:56:00,VALID,917.5,VALID,0,VALID,99.3288,VALID,-0.0509425,VALID,19.7141,VALID,12,VALID,0.482525,
2002-11-18, 00:57:00,VALID,917.501,VALID,0,VALID,99.3225,VALID,-0.101885,VALID,19.7015,VALID,11,VALID,0.672098,
2002-11-18, 00:58:00,VALID,917.5,VALID,0,VALID,99.3072,VALID,-0.0509425,VALID,19.6883,VALID,11,VALID,0.671875,
2002-11-18, 00:59:00,VALID,917.504,VALID,0,VALID,99.3047,VALID,-0.0849042,VALID,19.7015,VALID,13,VALID,0.652644,
2002-11-18, 01:00:00,VALID,917.497,VALID,0,VALID,99.3021,VALID,-0.0679233,VALID,19.6851,VALID,19,VALID,0.723346,
2002-11-18, 01:01:00,VALID,917.497,VALID,0,VALID,99.2831,VALID,-0.0849042,VALID,19.6913,VALID,25,VALID,0.64933,
2002-11-18, 01:02:00,VALID,917.474,VALID,0,VALID,99.2754,VALID,-0.0849042,VALID,19.6952,VALID,27,VALID,0.692383,
2002-11-18, 01:03:00,VALID,917.464,VALID,0,VALID,99.2818,VALID,-0.0339617,VALID,19.6813,VALID,24,VALID,0.612277,
2002-11-18, 01:04:00,VALID,917.459,VALID,0,VALID,99.2704,VALID,-0.0169808,VALID,19.7012,VALID,17,VALID,0.564798,
2002-11-18, 01:05:00,VALID,917.444,VALID,0,VALID,99.2678,VALID,-0.0169808,VALID,19.7005,VALID,5,VALID,0.724712,
2002-11-18, 01:06:00,VALID,917.434,VALID,0,VALID,99.25,VALID,0.0509425,VALID,19.6868,VALID,358,VALID,0.523661,
2002-11-18, 01:07:00,VALID,917.419,VALID,0,VALID,99.25,VALID,0.0339617,VALID,19.6935,VALID,353,VALID,0.635714,
2002-11-18, 01:08:00,VALID,917.418,VALID,0,VALID,99.2398,VALID,0.0169808,VALID,19.69,VALID,349,VALID,0.458534,
2002-11-18, 01:09:00,VALID,917.407,VALID,0,VALID,99.2309,VALID,0.0169808,VALID,19.6769,VALID,352,VALID,0.308594,
2002-11-18, 01:10:00,VALID,917.381,VALID,0,VALID,99.2208,VALID,0.0679233,VALID,19.6739,VALID,351,VALID,0.412277,
2002-11-18, 01:11:00,VALID,917.368,VALID,0,VALID,99.2195,VALID,0.0509425,VALID,19.6739,VALID,331,VALID,0.322656,
2002-11-18, 01:12:00,VALID,917.356,VALID,0,VALID,99.222,VALID,0.0169808,VALID,19.6739,VALID,317,VALID,0.218527,
2002-11-18, 01:13:00,VALID,917.326,VALID,0,VALID,99.2246,VALID,0.0509425,VALID,19.6836,VALID,317,VALID,0.196232,
2002-11-18, 01:14:00,VALID,917.294,VALID,0,VALID,99.2386,VALID,0.0509425,VALID,19.6933,VALID,314,VALID,0.258018,
2002-11-18, 01:15:00,VALID,917.28,VALID,0,VALID,99.2309,VALID,0,VALID,19.7,VALID,310,VALID,0.159598,
2002-11-18, 01:16:00,VALID,917.262,VALID,0,VALID,99.2309,VALID,0.0509425,VALID,19.6803,VALID,283,VALID,0.324554,
2002-11-18, 01:17:00,VALID,917.241,VALID,0,VALID,99.2284,VALID,0.0339617,VALID,19.6607,VALID,258,VALID,0.0863381,
2002-11-18, 01:18:00,VALID,917.24,VALID,0,VALID,99.2538,VALID,0,VALID,19.6647,VALID,258,VALID,0,
2002-11-18, 01:19:00,VALID,917.211,VALID,0,VALID,99.2564,VALID,0.0169808,VALID,19.6642,VALID,258,VALID,0.191295,
2002-11-18, 01:20:00,VALID,917.199,VALID,0,VALID,99.2564,VALID,-0.0509425,VALID,19.659,VALID,258,VALID,0.419141,
2002-11-18, 01:21:00,VALID,917.167,VALID,0,VALID,99.2564,VALID,-0.0679233,VALID,19.6498,VALID,258,VALID,0.223661,
2002-11-18, 01:22:00,VALID,917.147,VALID,0,VALID,99.2564,VALID,-0.0849042,VALID,19.6498,VALID,258,VALID,0.184283,
2002-11-18, 01:23:00,VALID,917.132,VALID,0,VALID,99.2767,VALID,-0.101885,VALID,19.6433,VALID,246,VALID,0.332237,
2002-11-18, 01:24:00,VALID,917.11,VALID,0,VALID,99.2818,VALID,-0.101885,VALID,19.6336,VALID,225,VALID,0.359821,
2002-11-18, 01:25:00,VALID,917.093,VALID,0,VALID,99.3034,VALID,-0.101885,VALID,19.6433,VALID,218,VALID,0.304464,
2002-11-18, 01:26:00,VALID,917.086,VALID,0,VALID,99.3123,VALID,-0.0509425,VALID,19.65,VALID,246,VALID,0.246194,
2002-11-18, 01:27:00,VALID,917.065,VALID,0,VALID,99.3149,VALID,-0.0679233,VALID,19.6368,VALID,246,VALID,0.174173,
2002-11-18, 01:28:00,VALID,917.068,VALID,0,VALID,99.3288,VALID,-0.0679233,VALID,19.6565,VALID,246,VALID,0.00602679,
2002-11-18, 01:29:00,VALID,917.064,VALID,0,VALID,99.3441,VALID,-0.0849042,VALID,19.6624,VALID,246,VALID,0.0164062,
2002-11-18, 01:30:00,VALID,917.066,VALID,0,VALID,99.3556,VALID,-0.101885,VALID,19.6694,VALID,246,VALID,0,
2002-11-18, 01:31:00,VALID,917.066,VALID,0,VALID,99.3708,VALID,-0.101885,VALID,19.6784,VALID,246,VALID,0,
2002-11-18, 01:32:00,VALID,917.065,VALID,0,VALID,99.3683,VALID,-0.0679233,VALID,19.6759,VALID,246,VALID,0,
2002-11-18, 01:33:00,VALID,917.048,VALID,0,VALID,99.3695,VALID,-0.0509425,VALID,19.6525,VALID,246,VALID,0.0698661,
2002-11-18, 01:34:00,VALID,917.025,VALID,0,VALID,99.3784,VALID,-0.0679233,VALID,19.6393,VALID,246,VALID,0.00223214,
2002-11-18, 01:35:00,VALID,917.014,VALID,0,VALID,99.3708,VALID,-0.0679233,VALID,19.6197,VALID,246,VALID,0,
2002-11-18, 01:36:00,VALID,916.997,VALID,0,VALID,99.3797,VALID,-0.101885,VALID,19.6433,VALID,246,VALID,0,
2002-11-18, 01:37:00,VALID,916.974,VALID,0,VALID,99.3912,VALID,-0.0679233,VALID,19.6465,VALID,246,VALID,0,
2002-11-18, 01:38:00,VALID,916.961,VALID,0,VALID,99.3873,VALID,-0.0679233,VALID,19.6334,VALID,246,VALID,0,
2002-11-18, 01:39:00,VALID,916.918,VALID,0,VALID,99.3988,VALID,-0.101885,VALID,19.6299,VALID,246,VALID,0,
2002-11-18, 01:40:00,VALID,916.906,VALID,0,VALID,99.4001,VALID,-0.101885,VALID,19.6304,VALID,246,VALID,0,
2002-11-18, 01:41:00,VALID,916.898,VALID,0,VALID,99.4064,VALID,-0.0849042,VALID,19.6371,VALID,246,VALID,0,
2002-11-18, 01:42:00,VALID,916.872,VALID,0,VALID,99.4179,VALID,-0.0849042,VALID,19.6336,VALID,246,VALID,0,
2002-11-18, 01:43:00,VALID,916.859,VALID,0,VALID,99.428,VALID,-0.0849042,VALID,19.6232,VALID,246,VALID,0,
2002-11-18, 01:44:00,VALID,916.852,VALID,0,VALID,99.4255,VALID,-0.0679233,VALID,19.6364,VALID,246,VALID,0.0562901,
2002-11-18, 01:45:00,VALID,916.836,VALID,0,VALID,99.4293,VALID,-0.0679233,VALID,19.6336,VALID,246,VALID,0.273438,
2002-11-18, 01:46:00,VALID,916.813,VALID,0,VALID,99.4344,VALID,-0.0849042,VALID,19.6167,VALID,246,VALID,0.292857,
2002-11-18, 01:47:00,VALID,916.787,VALID,0,VALID,99.4293,VALID,-0.0679233,VALID,19.6135,VALID,246,VALID,0.155859,
2002-11-18, 01:48:00,VALID,916.763,VALID,0,VALID,99.4357,VALID,-0.0679233,VALID,19.6175,VALID,246,VALID,0.0205357,
2002-11-18, 01:49:00,VALID,916.752,VALID,0,VALID,99.4318,VALID,-0.101885,VALID,19.6132,VALID,246,VALID,0,
2002-11-18, 01:50:00,VALID,916.74,VALID,0,VALID,99.4509,VALID,-0.0509425,VALID,19.6361,VALID,246,VALID,0,
2002-11-18, 01:51:00,VALID,916.728,VALID,0,VALID,99.4585,VALID,-0.0679233,VALID,19.6361,VALID,246,VALID,0,
2002-11-18, 01:52:00,VALID,916.715,VALID,0,VALID,99.4573,VALID,-0.101885,VALID,19.653,VALID,246,VALID,0,
2002-11-18, 01:53:00,VALID,916.688,VALID,0,VALID,99.4751,VALID,-0.0849042,VALID,19.6692,VALID,246,VALID,0,
2002-11-18, 01:54:00,VALID,916.665,VALID,0,VALID,99.4636,VALID,-0.0849042,VALID,19.6622,VALID,246,VALID,0,
2002-11-18, 01:55:00,VALID,916.654,VALID,0,VALID,99.4636,VALID,-0.0679233,VALID,19.6592,VALID,236,VALID,0.144643,
2002-11-18, 01:56:00,VALID,916.627,VALID,0,VALID,99.4496,VALID,-0.0849042,VALID,19.6396,VALID,199,VALID,0.15918,
2002-11-18, 01:57:00,VALID,916.582,VALID,0,VALID,99.4547,VALID,-0.101885,VALID,19.6431,VALID,199,VALID,0.0337054,
2002-11-18, 01:58:00,VALID,916.564,VALID,0,VALID,99.4585,VALID,-0.101885,VALID,19.6433,VALID,199,VALID,0.0107996,
2002-11-18, 01:59:00,VALID,916.542,VALID,0,VALID,99.4598,VALID,-0.101885,VALID,19.6406,VALID,199,VALID,0,
2002-11-18, 02:00:00,VALID,916.522,VALID,0,VALID,99.4687,VALID,-0.101885,VALID,19.6336,VALID,199,VALID,0,
2002-11-18, 02:01:00,VALID,916.481,VALID,0,VALID,99.4675,VALID,-0.101885,VALID,19.6368,VALID,199,VALID,0,
2002-11-18, 02:02:00,VALID,916.468,VALID,0,VALID,99.4573,VALID,-0.0849042,VALID,19.6145,VALID,199,VALID,0,
2002-11-18, 02:03:00,VALID,916.453,VALID,0,VALID,99.4547,VALID,-0.101885,VALID,19.614,VALID,199,VALID,0,
2002-11-18, 02:04:00,VALID,916.429,VALID,0,VALID,99.4738,VALID,-0.101885,VALID,19.6142,VALID,199,VALID,0,
2002-11-18, 02:05:00,VALID,916.431,VALID,0,VALID,99.4751,VALID,0.0169808,VALID,19.619,VALID,199,VALID,0,
2002-11-18, 02:06:00,VALID,916.42,VALID,0,VALID,99.4802,VALID,0.0509425,VALID,19.6416,VALID,199,VALID,0,
2002-11-18, 02:07:00,VALID,916.402,VALID,0,VALID,99.4853,VALID,0,VALID,19.6349,VALID,199,VALID,0,
2002-11-18, 02:08:00,VALID,916.404,VALID,0,VALID,99.4903,VALID,0.0339617,VALID,19.6545,VALID,199,VALID,0,
2002-11-18, 02:09:00,VALID,916.389,VALID,0,VALID,99.4814,VALID,0.0339617,VALID,19.6612,VALID,197,VALID,0.180134,
2002-11-18, 02:10:00,VALID,916.374,VALID,0,VALID,99.4878,VALID,0.0509425,VALID,19.6637,VALID,129,VALID,0.284152,
2002-11-18, 02:11:00,VALID,916.358,VALID,0,VALID,99.5081,VALID,0.0169808,VALID,19.6704,VALID,67,VALID,0.303886,
2002-11-18, 02:12:00,VALID,916.348,VALID,0,VALID,99.5018,VALID,0.0509425,VALID,19.6935,VALID,67,VALID,0.264936,
2002-11-18, 02:13:00,VALID,916.339,VALID,0,VALID,99.4891,VALID,0.0169808,VALID,19.6702,VALID,67,VALID,0.311384,
2002-11-18, 02:14:00,VALID,916.321,VALID,0,VALID,99.498,VALID,0,VALID,19.6764,VALID,67,VALID,0.186719,
2002-11-18, 02:15:00,VALID,916.305,VALID,0,VALID,99.4929,VALID,0.0339617,VALID,19.6898,VALID,67,VALID,0.154911,
2002-11-18, 02:16:00,VALID,916.294,VALID,0,VALID,99.4954,VALID,0,VALID,19.7,VALID,67,VALID,0.195083,
2002-11-18, 02:17:00,VALID,916.283,VALID,0,VALID,99.4992,VALID,0,VALID,19.7131,VALID,66,VALID,0.343544,
2002-11-18, 02:18:00,VALID,916.259,VALID,0,VALID,99.5018,VALID,0,VALID,19.6995,VALID,66,VALID,0.342857,
2002-11-18, 02:19:00,VALID,916.25,VALID,0,VALID,99.5043,VALID,0.0169808,VALID,19.6962,VALID,66,VALID,0.333482,
2002-11-18, 02:20:00,VALID,916.23,VALID,0,VALID,99.5043,VALID,0,VALID,19.6997,VALID,66,VALID,0.310497,
2002-11-18, 02:21:00,VALID,916.211,VALID,0,VALID,99.4942,VALID,0,VALID,19.6935,VALID,66,VALID,0.460018,
2002-11-18, 02:22:00,VALID,916.2,VALID,0,VALID,99.4853,VALID,0.0339617,VALID,19.6801,VALID,66,VALID,0.464063,
2002-11-18, 02:23:00,VALID,916.173,VALID,0,VALID,99.4916,VALID,0,VALID,19.6771,VALID,66,VALID,0.42168,
2002-11-18, 02:24:00,VALID,916.164,VALID,0,VALID,99.4903,VALID,0,VALID,19.6741,VALID,66,VALID,0.446205,
2002-11-18, 02:25:00,VALID,916.145,VALID,0,VALID,99.4878,VALID,0,VALID,19.6535,VALID,66,VALID,0.326976,
2002-11-18, 02:26:00,VALID,916.14,VALID,0,VALID,99.4903,VALID,0,VALID,19.6644,VALID,66,VALID,0.382813,
2002-11-18, 02:27:00,VALID,916.146,VALID,0,VALID,99.4916,VALID,0.0339617,VALID,19.6714,VALID,66,VALID,0.258705,
2002-11-18, 02:28:00,VALID,916.145,VALID,0,VALID,99.5005,VALID,0,VALID,19.6744,VALID,66,VALID,0.129688,
2002-11-18, 02:29:00,VALID,916.139,VALID,0,VALID,99.5069,VALID,-0.0169808,VALID,19.687,VALID,66,VALID,0.203325,
2002-11-18, 02:30:00,VALID,916.139,VALID,0,VALID,99.5132,VALID,0,VALID,19.6903,VALID,66,VALID,0.263327,
2002-11-18, 02:31:00,VALID,916.134,VALID,0,VALID,99.5043,VALID,0.0169808,VALID,19.6935,VALID,66,VALID,0.233929,
2002-11-18, 02:32:00,VALID,916.138,VALID,0,VALID,99.5183,VALID,0.0169808,VALID,19.6903,VALID,66,VALID,0.349219,
2002-11-18, 02:33:00,VALID,916.132,VALID,0,VALID,99.5094,VALID,0,VALID,19.6965,VALID,66,VALID,0.213393,
2002-11-18, 02:34:00,VALID,916.121,VALID,0,VALID,99.5158,VALID,0,VALID,19.6967,VALID,66,VALID,0.137408,
2002-11-18, 02:35:00,VALID,916.093,VALID,0,VALID,99.5081,VALID,-0.0679233,VALID,19.6975,VALID,66,VALID,0.052426,
2002-11-18, 02:36:00,VALID,916.074,VALID,0,VALID,99.5081,VALID,-0.0169808,VALID,19.6938,VALID,66,VALID,0.0207589,
2002-11-18, 02:37:00,VALID,916.049,VALID,0,VALID,99.5183,VALID,-0.0339617,VALID,19.7005,VALID,66,VALID,0,
2002-11-18, 02:38:00,VALID,916.035,VALID,0,VALID,99.5145,VALID,-0.0679233,VALID,19.7002,VALID,66,VALID,0,
2002-11-18, 02:39:00,VALID,916.018,VALID,0,VALID,99.5196,VALID,-0.0169808,VALID,19.7102,VALID,66,VALID,0,
2002-11-18, 02:40:00,VALID,916.004,VALID,0,VALID,99.5158,VALID,-0.0169808,VALID,19.7228,VALID,66,VALID,0,
2002-11-18, 02:41:00,VALID,915.993,VALID,0,VALID,99.5247,VALID,0,VALID,19.7261,VALID,66,VALID,0,
2002-11-18, 02:42:00,VALID,915.988,VALID,0,VALID,99.5285,VALID,-0.0339617,VALID,19.7427,VALID,66,VALID,0.110937,
2002-11-18, 02:43:00,VALID,915.982,VALID,0,VALID,99.5272,VALID,-0.0169808,VALID,19.7392,VALID,54,VALID,0.388097,
2002-11-18, 02:44:00,VALID,915.967,VALID,0,VALID,99.5247,VALID,0,VALID,19.7263,VALID,38,VALID,0.382401,
2002-11-18, 02:45:00,VALID,915.954,VALID,0,VALID,99.5323,VALID,-0.0169808,VALID,19.7293,VALID,38,VALID,0.333705,
2002-11-18, 02:46:00,VALID,915.946,VALID,0,VALID,99.531,VALID,0,VALID,19.7425,VALID,38,VALID,0.26875,
2002-11-18, 02:47:00,VALID,915.946,VALID,0,VALID,99.531,VALID,-0.0339617,VALID,19.7589,VALID,38,VALID,0.135016,
2002-11-18, 02:48:00,VALID,915.9,VALID,0,VALID,99.5361,VALID,-0.0169808,VALID,19.7686,VALID,38,VALID,0.285846,
2002-11-18, 02:49:00,VALID,915.886,VALID,0,VALID,99.5247,VALID,-0.0169808,VALID,19.7651,VALID,38,VALID,0.163393,
2002-11-18, 02:50:00,VALID,915.883,VALID,0,VALID,99.5387,VALID,-0.0339617,VALID,19.775,VALID,38,VALID,0.208398,
2002-11-18, 02:51:00,VALID,915.871,VALID,0,VALID,99.5399,VALID,-0.0509425,VALID,19.7651,VALID,38,VALID,0.342634,
2002-11-18, 02:52:00,VALID,915.852,VALID,0,VALID,99.5361,VALID,-0.0169808,VALID,19.7616,VALID,38,VALID,0.181066,
2002-11-18, 02:53:00,VALID,915.84,VALID,0,VALID,99.531,VALID,-0.0339617,VALID,19.7457,VALID,38,VALID,0.0407072,
2002-11-18, 02:54:00,VALID,915.837,VALID,0,VALID,99.5285,VALID,-0.0339617,VALID,19.7298,VALID,38,VALID,0.0296875,
2002-11-18, 02:55:00,VALID,915.827,VALID,0,VALID,99.5259,VALID,0,VALID,19.7263,VALID,38,VALID,0.207143,
2002-11-18, 02:56:00,VALID,915.818,VALID,0,VALID,99.5247,VALID,-0.0339617,VALID,19.7328,VALID,37,VALID,0.176883,
2002-11-18, 02:57:00,VALID,915.82,VALID,0,VALID,99.5298,VALID,0,VALID,19.7616,VALID,37,VALID,0.150046,
2002-11-18, 02:58:00,VALID,915.823,VALID,0,VALID,99.531,VALID,-0.0169808,VALID,19.7517,VALID,37,VALID,0.251563,
2002-11-18, 02:59:00,VALID,915.809,VALID,0,VALID,99.5221,VALID,-0.0339617,VALID,19.736,VALID,37,VALID,0.0777344,
2002-11-18, 03:00:00,VALID,915.808,VALID,0,VALID,99.5272,VALID,-0.0509425,VALID,19.7325,VALID,37,VALID,0.04375,
2002-11-18, 03:01:00,VALID,915.811,VALID,0,VALID,99.5361,VALID,-0.0169808,VALID,19.7333,VALID,37,VALID,0.0850184,
2002-11-18, 03:02:00,VALID,915.794,VALID,0,VALID,99.5361,VALID,-0.0509425,VALID,19.7519,VALID,37,VALID,0.169202,
2002-11-18, 03:03:00,VALID,915.793,VALID,0,VALID,99.5348,VALID,-0.0169808,VALID,19.7581,VALID,21,VALID,0.269643,
2002-11-18, 03:04:00,VALID,915.798,VALID,0,VALID,99.5374,VALID,-0.0509425,VALID,19.7489,VALID,8,VALID,0.193527,
2002-11-18, 03:05:00,VALID,915.784,VALID,0,VALID,99.5437,VALID,-0.0169808,VALID,19.742,VALID,21,VALID,0.30008,
2002-11-18, 03:06:00,VALID,915.788,VALID,0,VALID,99.5514,VALID,-0.0509425,VALID,19.7492,VALID,15,VALID,0.305377,
2002-11-18, 03:07:00,VALID,915.777,VALID,0,VALID,99.5488,VALID,-0.0169808,VALID,19.7358,VALID,9,VALID,0.0899554,
2002-11-18, 03:08:00,VALID,915.787,VALID,0,VALID,99.5488,VALID,0,VALID,19.7325,VALID,9,VALID,0,
2002-11-18, 03:09:00,VALID,915.795,VALID,0,VALID,99.545,VALID,0,VALID,19.7293,VALID,9,VALID,0,
2002-11-18, 03:10:00,VALID,915.792,VALID,0,VALID,99.5387,VALID,-0.0339617,VALID,19.7328,VALID,9,VALID,0,
2002-11-18, 03:11:00,VALID,915.787,VALID,0,VALID,99.5348,VALID,-0.0509425,VALID,19.7363,VALID,9,VALID,0,
2002-11-18, 03:12:00,VALID,915.788,VALID,0,VALID,99.5476,VALID,-0.0339617,VALID,19.7325,VALID,9,VALID,0,
2002-11-18, 03:13:00,VALID,915.769,VALID,0,VALID,99.5463,VALID,-0.0169808,VALID,19.7427,VALID,9,VALID,0,
2002-11-18, 03:14:00,VALID,915.762,VALID,0,VALID,99.5463,VALID,0,VALID,19.7551,VALID,21,VALID,0.515425,
2002-11-18, 03:15:00,VALID,915.759,VALID,0,VALID,99.5476,VALID,-0.0169808,VALID,19.7554,VALID,5,VALID,0.431985,
2002-11-18, 03:16:00,VALID,915.763,VALID,0,VALID,99.5463,VALID,-0.0509425,VALID,19.743,VALID,328,VALID,0.396875,
2002-11-18, 03:17:00,VALID,915.761,VALID,0,VALID,99.5476,VALID,0,VALID,19.7196,VALID,343,VALID,0.433789,
2002-11-18, 03:18:00,VALID,915.76,VALID,0,VALID,99.5577,VALID,-0.0169808,VALID,19.7355,VALID,7,VALID,0.304911,
2002-11-18, 03:19:00,VALID,915.763,VALID,0,VALID,99.5488,VALID,0,VALID,19.7489,VALID,7,VALID,0.442325,
2002-11-18, 03:20:00,VALID,915.754,VALID,0,VALID,99.5463,VALID,0,VALID,19.7522,VALID,7,VALID,0.303043,
2002-11-18, 03:21:00,VALID,915.763,VALID,0,VALID,99.5488,VALID,-0.0339617,VALID,19.7524,VALID,7,VALID,0.287054,
2002-11-18, 03:22:00,VALID,915.747,VALID,0,VALID,99.5603,VALID,-0.0169808,VALID,19.736,VALID,7,VALID,0.336384,
2002-11-18, 03:23:00,VALID,915.774,VALID,0,VALID,99.5488,VALID,-0.0509425,VALID,19.7263,VALID,7,VALID,0.442508,
2002-11-18, 03:24:00,VALID,915.764,VALID,0,VALID,99.5488,VALID,-0.0509425,VALID,19.7164,VALID,7,VALID,0.332261,
2002-11-18, 03:25:00,VALID,915.772,VALID,0,VALID,99.5539,VALID,-0.0509425,VALID,19.7231,VALID,7,VALID,0.380134,
2002-11-18, 03:26:00,VALID,915.765,VALID,0,VALID,99.5539,VALID,0,VALID,19.7387,VALID,5,VALID,0.361523,
2002-11-18, 03:27:00,VALID,915.756,VALID,0,VALID,99.5539,VALID,-0.0169808,VALID,19.7263,VALID,359,VALID,0.372768,
2002-11-18, 03:28:00,VALID,915.751,VALID,0,VALID,99.5539,VALID,0,VALID,19.7459,VALID,360,VALID,0.595588,
2002-11-18, 03:29:00,VALID,915.74,VALID,0,VALID,99.5539,VALID,-0.0169808,VALID,19.7432,VALID,3,VALID,0.613281,
2002-11-18, 03:30:00,VALID,915.746,VALID,0,VALID,99.5552,VALID,0,VALID,19.7199,VALID,17,VALID,0.622545,
2002-11-18, 03:31:00,VALID,915.745,VALID,0,VALID,99.545,VALID,-0.0339617,VALID,19.7129,VALID,7,VALID,0.500223,
2002-11-18, 03:32:00,VALID,915.743,VALID,0,VALID,99.5501,VALID,-0.0169808,VALID,19.7099,VALID,7,VALID,0.317308,
2002-11-18, 03:33:00,VALID,915.744,VALID,0,VALID,99.5488,VALID,0,VALID,19.7231,VALID,15,VALID,0.605469,
2002-11-18, 03:34:00,VALID,915.721,VALID,0,VALID,99.5565,VALID,0,VALID,19.7261,VALID,15,VALID,0.374107,
2002-11-18, 03:35:00,VALID,915.717,VALID,0,VALID,99.5577,VALID,-0.0849042,VALID,19.7494,VALID,14,VALID,0.158789,